Location: Tucson
(32.2217°N, 110.9265°W)
Time: 12:29:55
(UTC-07:00)

A-11 Canister half - Pass Details

Date: 03 November 2021
Orbit: 1516 x 1684 km, 47.2° (Epoch: 04 December)

Event Time Altitude Azimuth Distance (km) Brightness Sun altitude
Rises 22:05:03 0° 307° (NW) 4,886 12.1 -57.6°
Reaches altitude 10° 22:08:14 10° 307° (NW) 3,878 11.4 -58.2°
Enters shadow 22:10:33 20° 307° (NW) 3,158 10.8 -58.6°
